Location: Newark
(52.4787°S, 179.0532°W)
Time: 02:30:55
(UTC+00:00)

Vanguard 1 - Pass Details

Date: 21 November 2019
Orbit: 652 x 3831 km, 34.3° (Epoch: 07 December)

Event Time Altitude Azimuth Distance (km) Brightness Sun altitude
Rises 11:37:35 0° 296° (WNW) 5,609 13.7 -17.6°
Reaches altitude 10° 11:40:57 10° 302° (WNW) 4,977 13.3 -17.6°
Maximum altitude 11:55:13 43° 6° (N) 4,116 12.7 -17.6°
Drops below altitude 10° 12:15:35 10° 67° (ENE) 6,943 14.2 -17.2°
Sets 12:21:26 0° 72° (ENE) 7,937 14.6 -17.1°
